Мобильная версия
Войти

Аэрофлот отменяет рейсы???

 ↓ ВНИЗ

12345678

Petruha_89
Старожил форума
13.07.2017 11:22
Alex Skyboy
Круглогодичное постоянство, при прогнозе погоды отменять рейсы говорит о значительной части эффективности манагеров этой компании :)
http://www.aeroflot.ru/ru-ru/n ...


TAF

TAF UUEE 130450Z 1306/1406 14006MPS 2000 BR OVC003 TX21/1312Z TN15/1402Z TEMPO 1306/1308 0300 FG VV001
BECMG 1308/1309 6000 NSW BKN005 TEMPO 1309/1321 VRB17MPS 1200 TSRA SQ SCT004 BKN015CB TEMPO 1321/1406 2100 -RA BR OVC004


Временами гроза - и отмена рейсов? Неужели такой страшный прогноз?
Интересно - гроза временами уже днём ожидается, почему тогда меняется время вылета только вечерних и ночных рейсов?
aeroman
Старожил форума
13.07.2017 11:35
Неужели ещё не вымерли все динозавры, верящие басням о отмене рейсов из-за погоды???
Petruha_89
Старожил форума
13.07.2017 11:48
aeroman
Неужели ещё не вымерли все динозавры, верящие басням о отмене рейсов из-за погоды???
Достаточно TAF глянуть - и сразу понятно, что очередная лапша на уши пассажирам. Ну зимой ещё можно было на очистку снега спихнуть, но "временами гроза" - неужели тучи будут разгонять, что без отмены и переносов рейсов не обойтись?
взлет продолжаем
Старожил форума
13.07.2017 18:31
Наглость конечно. Форменная. Савельев просто смеется над нами, уродами...
Сергей_67
Старожил форума
13.07.2017 19:08
взлет продолжаем
Наглость конечно. Форменная. Савельев просто смеется над нами, уродами...
Лохов надо учить...
АТИ
Старожил форума
13.07.2017 19:25
Чудесно(((...я думал к лету это кончится, через неделю дочку одну отправляю вафлотом...вот ведь ...менеджеры
Сергей_67
Старожил форума
13.07.2017 19:34
АТИ
Чудесно(((...я думал к лету это кончится, через неделю дочку одну отправляю вафлотом...вот ведь ...менеджеры
К лету...Есть ведь ещё и пятна на Солнце, неблагоприятные геомагнитные дни, много чего есть...☺☺☺
Топер Харли
Старожил форума
13.07.2017 20:46
Рейсы со 100% загрузкой, либо самолётов нет либо некому.
взлет продолжаем
Старожил форума
14.07.2017 02:47
Сергей_67
Лохов надо учить...
Ну да, согласен. Мы и есть лохи. Тем более после всего этого, как покорные бараны идем и снова покупаем на них билеты..
talaba
Старожил форума
14.07.2017 08:15
Уже неоднократно задавал эти вопросы, но ответа так и не получил: почему при "плохой" погоде всегда страдает направление на Нижнекамск? И почему рейс из Москвы в 21.50 ВСЕГДА переносят на 2.15 ночи (при этом обратный рейс в Москву в 5.00 по расписанию и очень удобно перевозчику, не надо самолет держать всю ночь в порту)? То есть погода как-то избирательно действует исключительно на Нижнекамск и исключительно на неудобный перевозчику рейс. Про отмены дневных рейсов я вообще молчу - как только недозагруз - сразу отмена.
P.S. Я являюсь голден мембером Аэрофлота, но в этом году вряд ли наберу необходимое количество полетов. Из-за такой гнилой политики авиакомпании в отношении пассажиров и нашего направления я в этом году стану голден мембером S7.
P.P.S. При этом я остаюсь при мнении, что Аэрофлот на сегодняшний день самая лучшая российская авиакомпания, это объективный факт, но отношение руководства компании к пассажирам - свинское.
пассажирка
Старожил форума
14.07.2017 12:29
Посмотрела переносы - абзац....
А если гроза будет не сильная, а перенос уже объявлен ?
совсем не прикольно прилететь в Стокгольм в 1 час ночи вместо 7 вечера накануне.

жаль что альтернативы совсем никак... :-(
LRfP
Старожил форума
15.07.2017 01:20
При этом я остаюсь при мнении, что Аэрофлот на сегодняшний день самая лучшая российская авиакомпания, это объективный факт, но отношение руководства компании к пассажирам - свинское.

Так может просветите нас, отсталых, по каким таким понятным нам критериям АФЛ-лучшая??
Если многие уже считают его ненадёжным из-за непредсказуемых частых отмен рейсов?
Да и "лучшие" по свински к паксам не относятся....
HeliCap
Старожил форума
15.07.2017 08:47
Летел недавно я нацпером- не по своей воле, билет брали заинтересованные лица, ничего "премиального" не обнаружил, кроме сломанной кнопки регулятора наклона спинки сидения. Все это понты пиарные...
АТИ
Старожил форума
14.08.2017 17:58
Информация для пассажиров, вылетающих из/в Шереметьево 14 августа 2017 года
13 августа 2017 года, Москва. — В связи с прогнозом неблагоприятных метеоусловий в а/п Шереметьево (гроза) Аэрофлот вынужден 14 августа отменить следующие рейсы:
Рейс
Маршрут

SU2550
Шереметьево
Амстердам

SU1420
Шереметьево
Челябинск

SU1272
Шереметьево
Краснодар

SU1400
Шереметьево
Екатеринбург

SU2402
Шереметьево
Рим

SU2184
Шереметьево
Вена

SU1421
Челябинск
Шереметьево

SU1273
Краснодар
Шереметьево

SU1401
Екатеринбург
Шереметьево

SU2551
Амстердам
Шереметьево

SU2185
Вена
Шереметьево

SU2403
Рим
Шереметьево

SU2458
Шереметьево
Париж

SU1506
Шереметьево
Тюмень

SU1507
Тюмень
Шереметьево

SU2102
Шереметьево
Рига

SU2200
Шереметьево
Хельсинки

SU2459
Париж
Шереметьево

SU2103
Рига
Шереметьево

SU2201
Хельсинки
Шереметьево
Petruha_89
Старожил форума
14.08.2017 21:23
А на какое время попали отмененные рейсы? Вот фактическая погода. Еще в 3 ночи была гроза с дождем, далее до 5-ти утра слабый ливневой дождь. Ну а дальше - погода для полетов отличная.

UUEE 141800Z 33004MPS 9999 SCT038CB 20/17 Q1019 R24R/CLRD62 R24L/CLRD62 NOSIG
UUEE 141730Z 32006MPS 9999 SCT035CB 21/18 Q1019 R24R/CLRD62 R24L/CLRD62 NOSIG
UUEE 141700Z 33004MPS 9999 SCT031CB 21/18 Q1018 R24R/CLRD62 R24L/CLRD62 NOSIG
UUEE 141630Z 32004MPS 9999 SCT028CB 22/18 Q1018 R24R/CLRD62 R24L/CLRD62 NOSIG
UUEE 141600Z 32005MPS 9999 SCT027 22/18 Q1018 R24R/CLRD62 R24L/CLRD62 NOSIG
UUEE 141530Z 34004MPS 9999 SCT037 23/18 Q1018 R24R/CLRD62 R24L/CLRD62 NOSIG
UUEE 141500Z 32004MPS CAVOK 23/18 Q1018 R24R/CLRD62 R24L/CLRD62 NOSIG
UUEE 141430Z 34003MPS CAVOK 24/18 Q1017 R24R/CLRD62 R24L/CLRD62 NOSIG
UUEE 141400Z 34003MPS CAVOK 24/18 Q1017 R24R/CLRD62 R24L/CLRD62 NOSIG
UUEE 141330Z 31003MPS CAVOK 24/18 Q1017 R24R/CLRD62 R24L/CLRD62 NOSIG
UUEE 141300Z 32004MPS 9999 SCT031 25/18 Q1017 R24R/CLRD62 R24L/CLRD62 NOSIG
UUEE 141230Z 32003MPS CAVOK 24/18 Q1017 R24R/CLRD62 R24L/CLRD62 NOSIG
UUEE 141200Z 32003MPS 9999 SCT033 24/18 Q1017 R24R/CLRD62 R24L/CLRD62 NOSIG
UUEE 141130Z 35003MPS 9999 SCT033 24/18 Q1017 R24R/CLRD62 R24L/CLRD62 NOSIG
UUEE 141100Z 28003MPS 210V010 9999 SCT032 25/18 Q1017 R24R/CLRD62 R24L/CLRD62 NOSIG
UUEE 141030Z VRB01MPS 9999 SCT024 25/19 Q1017 R24R/CLRD62 R24L/CLRD62 NOSIG
UUEE 141000Z 31002MPS 230V010 9999 SCT022 24/18 Q1017 R24R/CLRD62 R24L/CLRD62 NOSIG
UUEE 140930Z 32003MPS 290V360 9999 SCT020 23/18 Q1017 R24R/CLRD62 R24L/CLRD62 NOSIG
UUEE 140900Z 33003MPS 280V010 9999 SCT014 23/19 Q1017 R24R/CLRD62 R24L/CLRD62 NOSIG
UUEE 140830Z 33003MPS CAVOK 22/19 Q1016 R24L/190057 NOSIG
UUEE 140800Z 26003MPS CAVOK 21/19 Q1016 R24L/190057 NOSIG
UUEE 140730Z 29003MPS CAVOK 21/19 Q1016 R24R/190057 R24L/190057 NOSIG
UUEE 140700Z 31002MPS CAVOK 21/19 Q1015 R24R/190057 R24L/190057 NOSIG
UUEE 140630Z 31002MPS CAVOK 20/19 Q1015 R24R/190057 R24L/190057 NOSIG
UUEE 140600Z 28003MPS CAVOK 20/19 Q1015 R24R/190057 R24L/190057 NOSIG
UUEE 140530Z 35002MPS CAVOK 19/18 Q1015 R24R/290051 R24L/290051 NOSIG
UUEE 140500Z 30002MPS CAVOK 19/18 Q1015 R24R/290051 R24L/290051 NOSIG
UUEE 140430Z 32002MPS CAVOK 19/18 Q1015 R06L/290051 R06R/290051 NOSIG
UUEE 140400Z VRB01MPS CAVOK 19/18 Q1015 R06L/290051 R06R/290051 NOSIG
UUEE 140330Z 25001MPS CAVOK 19/18 Q1014 R06L/290051 R06R/290051 NOSIG
UUEE 140300Z 18002MPS 150V230 CAVOK 18/18 Q1014 R06L/290340 R06R/290345 NOSIG
UUEE 140230Z VRB01MPS CAVOK 18/18 Q1014 R06L/290340 R06R/290345 NOSIG
UUEE 140200Z VRB01MPS 9999 -SHRA SCT050CB 18/17 Q1014 R24R/290340 R24L/290345 NOSIG
UUEE 140130Z VRB01MPS 9999 -SHRA SCT050CB 19/17 Q1014 R24R/290340 R24L/290345 TEMPO VRB16MPS -TSRA SCT020CB
UUEE 140100Z 27002MPS 9999 -SHRA SCT050CB 18/17 Q1015 R24R/290340 R24L/290345 TEMPO VRB16MPS -TSRA SCT020CB
UUEE 140030Z 30004MPS 9999 -SHRA SCT050CB 19/17 Q1015 R24R/290340 R24L/290345 TEMPO VRB16MPS -TSRA SCT020CB
UUEE 140000Z 30004MPS 9999 -TSRA BKN050CB 19/18 Q1015 R24R/290340 R24L/290345 TEMPO VRB16MPS -TSRA SCT020CB
АТИ
Старожил форума
14.08.2017 22:04
Petruha_89
А на какое время попали отмененные рейсы? Вот фактическая погода. Еще в 3 ночи была гроза с дождем, далее до 5-ти утра слабый ливневой дождь. Ну а дальше - погода для полетов отличная.

UUEE 141800Z 33004MPS 9999 SCT038CB 20/17 Q1019 R24R/CLRD62 R24L/CLRD62 NOSIG
UUEE 141730Z 32006MPS 9999 SCT035CB 21/18 Q1019 R24R/CLRD62 R24L/CLRD62 NOSIG
UUEE 141700Z 33004MPS 9999 SCT031CB 21/18 Q1018 R24R/CLRD62 R24L/CLRD62 NOSIG
UUEE 141630Z 32004MPS 9999 SCT028CB 22/18 Q1018 R24R/CLRD62 R24L/CLRD62 NOSIG
UUEE 141600Z 32005MPS 9999 SCT027 22/18 Q1018 R24R/CLRD62 R24L/CLRD62 NOSIG
UUEE 141530Z 34004MPS 9999 SCT037 23/18 Q1018 R24R/CLRD62 R24L/CLRD62 NOSIG
UUEE 141500Z 32004MPS CAVOK 23/18 Q1018 R24R/CLRD62 R24L/CLRD62 NOSIG
UUEE 141430Z 34003MPS CAVOK 24/18 Q1017 R24R/CLRD62 R24L/CLRD62 NOSIG
UUEE 141400Z 34003MPS CAVOK 24/18 Q1017 R24R/CLRD62 R24L/CLRD62 NOSIG
UUEE 141330Z 31003MPS CAVOK 24/18 Q1017 R24R/CLRD62 R24L/CLRD62 NOSIG
UUEE 141300Z 32004MPS 9999 SCT031 25/18 Q1017 R24R/CLRD62 R24L/CLRD62 NOSIG
UUEE 141230Z 32003MPS CAVOK 24/18 Q1017 R24R/CLRD62 R24L/CLRD62 NOSIG
UUEE 141200Z 32003MPS 9999 SCT033 24/18 Q1017 R24R/CLRD62 R24L/CLRD62 NOSIG
UUEE 141130Z 35003MPS 9999 SCT033 24/18 Q1017 R24R/CLRD62 R24L/CLRD62 NOSIG
UUEE 141100Z 28003MPS 210V010 9999 SCT032 25/18 Q1017 R24R/CLRD62 R24L/CLRD62 NOSIG
UUEE 141030Z VRB01MPS 9999 SCT024 25/19 Q1017 R24R/CLRD62 R24L/CLRD62 NOSIG
UUEE 141000Z 31002MPS 230V010 9999 SCT022 24/18 Q1017 R24R/CLRD62 R24L/CLRD62 NOSIG
UUEE 140930Z 32003MPS 290V360 9999 SCT020 23/18 Q1017 R24R/CLRD62 R24L/CLRD62 NOSIG
UUEE 140900Z 33003MPS 280V010 9999 SCT014 23/19 Q1017 R24R/CLRD62 R24L/CLRD62 NOSIG
UUEE 140830Z 33003MPS CAVOK 22/19 Q1016 R24L/190057 NOSIG
UUEE 140800Z 26003MPS CAVOK 21/19 Q1016 R24L/190057 NOSIG
UUEE 140730Z 29003MPS CAVOK 21/19 Q1016 R24R/190057 R24L/190057 NOSIG
UUEE 140700Z 31002MPS CAVOK 21/19 Q1015 R24R/190057 R24L/190057 NOSIG
UUEE 140630Z 31002MPS CAVOK 20/19 Q1015 R24R/190057 R24L/190057 NOSIG
UUEE 140600Z 28003MPS CAVOK 20/19 Q1015 R24R/190057 R24L/190057 NOSIG
UUEE 140530Z 35002MPS CAVOK 19/18 Q1015 R24R/290051 R24L/290051 NOSIG
UUEE 140500Z 30002MPS CAVOK 19/18 Q1015 R24R/290051 R24L/290051 NOSIG
UUEE 140430Z 32002MPS CAVOK 19/18 Q1015 R06L/290051 R06R/290051 NOSIG
UUEE 140400Z VRB01MPS CAVOK 19/18 Q1015 R06L/290051 R06R/290051 NOSIG
UUEE 140330Z 25001MPS CAVOK 19/18 Q1014 R06L/290051 R06R/290051 NOSIG
UUEE 140300Z 18002MPS 150V230 CAVOK 18/18 Q1014 R06L/290340 R06R/290345 NOSIG
UUEE 140230Z VRB01MPS CAVOK 18/18 Q1014 R06L/290340 R06R/290345 NOSIG
UUEE 140200Z VRB01MPS 9999 -SHRA SCT050CB 18/17 Q1014 R24R/290340 R24L/290345 NOSIG
UUEE 140130Z VRB01MPS 9999 -SHRA SCT050CB 19/17 Q1014 R24R/290340 R24L/290345 TEMPO VRB16MPS -TSRA SCT020CB
UUEE 140100Z 27002MPS 9999 -SHRA SCT050CB 18/17 Q1015 R24R/290340 R24L/290345 TEMPO VRB16MPS -TSRA SCT020CB
UUEE 140030Z 30004MPS 9999 -SHRA SCT050CB 19/17 Q1015 R24R/290340 R24L/290345 TEMPO VRB16MPS -TSRA SCT020CB
UUEE 140000Z 30004MPS 9999 -TSRA BKN050CB 19/18 Q1015 R24R/290340 R24L/290345 TEMPO VRB16MPS -TSRA SCT020CB
На практически весь день попали.
Офигенная компания, отменяющая рейсы не по фактической погоде, а просто по прогнозу.
Хотя про истинные причины тут писали сто раз...
canadian
Старожил форума
14.08.2017 22:10
Хорошо, пусть афл не лучшая ак. Тогда кто лучше? Деградировавший ютэйр? Убогий редвингс или вим?
А вот отменять рейсы это хамство. При этом тупые журналисты верят в некий циклон, которого все нет.
canadian
Старожил форума
14.08.2017 22:11
Хорошо, пусть афл не лучшая ак. Тогда кто лучше? Деградировавший ютэйр? Убогий редвингс или вим?
А вот отменять рейсы это хамство. При этом тупые журналисты верят в некий циклон, которого все нет.
Petruha_89
Старожил форума
14.08.2017 22:31
canadian
Хорошо, пусть афл не лучшая ак. Тогда кто лучше? Деградировавший ютэйр? Убогий редвингс или вим?
А вот отменять рейсы это хамство. При этом тупые журналисты верят в некий циклон, которого все нет.
Да вопрос не в том - лучше или хуже.
Вопрос в том что врет пассажирам о причинах отмен рейсов.
canadian
Старожил форума
14.08.2017 22:36
Это да, скотство. Причем делают это регулярно с недавних пор.
Alex Skyboy
Старожил форума
15.08.2017 18:02
canadian
Хорошо, пусть афл не лучшая ак. Тогда кто лучше? Деградировавший ютэйр? Убогий редвингс или вим?
А вот отменять рейсы это хамство. При этом тупые журналисты верят в некий циклон, которого все нет.
Взял билеты на деградирующий Ютэйр на начало сентября, испугался, что опупенный Едрофлот сможет спрогнозировать снег на этот период. Нунах так рисковать отдыхом.
АОН РФ
Старожил форума
15.08.2017 18:05
Alex Skyboy
Взял билеты на деградирующий Ютэйр на начало сентября, испугался, что опупенный Едрофлот сможет спрогнозировать снег на этот период. Нунах так рисковать отдыхом.
"...речь не мальчика, но мужа...". ☺☺☺
Petruha_89
Старожил форума
16.08.2017 09:26
Alex Skyboy
Взял билеты на деградирующий Ютэйр на начало сентября, испугался, что опупенный Едрофлот сможет спрогнозировать снег на этот период. Нунах так рисковать отдыхом.
Только массовое пассажирское "голосование", т.е. покупка билетов не у Аэрофлота (при наличии вариантов) может заставить менеджмент АК повернуться лицом к пассажирам.
пассажирка
Старожил форума
16.08.2017 20:51
если бы другие не летали из Домика.....

а то оттуда летать - как из другого города, причем еще и расположенного где-то Азии в деревне, простите меня....

"мыши плакали, кололись, но продолжали есть кактус". э

Играем в русскую рулетку- - отменят или нет. чем ехать в домик и гарантированно получать негатив там
Lee
Старожил форума
17.08.2017 15:53
массовое голосование "ногами" возможно в конкурентной среде. у нас к сожалению, таковой не наблюдается.
так как нет реальных независимых коммерческих перевозчиков.
АТИ
Старожил форума
25.01.2019 21:54
На выходные АФЛ отменил около 130 рейсов :

25 января 2019 года, Москва. — В связи с прогнозом неблагоприятных метеоусловий в аэропорту Шереметьево Аэрофлот вносит изменения в расписание рейсов 26 и 27 января.

https://www.aeroflot.ru/ru-ru/ ...
kolyakra
Старожил форума
25.01.2019 22:56
АТИ
На выходные АФЛ отменил около 130 рейсов :

25 января 2019 года, Москва. — В связи с прогнозом неблагоприятных метеоусловий в аэропорту Шереметьево Аэрофлот вносит изменения в расписание рейсов 26 и 27 января.

https://www.aeroflot.ru/ru-ru/ ...
Понеслось. Экономия.
Evgeny_73
Старожил форума
25.01.2019 22:58
АТИ
На выходные АФЛ отменил около 130 рейсов :

25 января 2019 года, Москва. — В связи с прогнозом неблагоприятных метеоусловий в аэропорту Шереметьево Аэрофлот вносит изменения в расписание рейсов 26 и 27 января.

https://www.aeroflot.ru/ru-ru/ ...
Летайте другими авиакомпаниями и минуя шереметьево, у них такого беспредела нет.
vor loc
Старожил форума
26.01.2019 16:18
canadian
Хорошо, пусть афл не лучшая ак. Тогда кто лучше? Деградировавший ютэйр? Убогий редвингс или вим?
А вот отменять рейсы это хамство. При этом тупые журналисты верят в некий циклон, которого все нет.
S7 на 320neo норм, сейчас стараюсь просить билеты на зелёных, только не афл... 28 тыщ за тесноту в 6 часов - это слишком
vor loc
Старожил форума
26.01.2019 16:21
Кстати, это ж в афл на 737 туалет размером с половину обычного и кран за пределы раковины торчит...
Latino
Старожил форума
26.01.2019 17:47
vor loc
Кстати, это ж в афл на 737 туалет размером с половину обычного и кран за пределы раковины торчит...
Не на всех, но да.... зато зеркало в полный рост...)))
vor loc
Старожил форума
26.01.2019 23:53
Значит мне не приснилось, ваще жесть, ноги водой заливеншь в экономе за 28 кусков.....
В ютах на 737 такого нет. Ну и в с7 тоже.
Latino
Старожил форума
27.01.2019 00:07
vor loc
Значит мне не приснилось, ваще жесть, ноги водой заливеншь в экономе за 28 кусков.....
В ютах на 737 такого нет. Ну и в с7 тоже.
Ну... Вы хотя бы поместились... не всем так везёт...)))
vor loc
Старожил форума
27.01.2019 00:47
Latino
Ну... Вы хотя бы поместились... не всем так везёт...)))
ахахах, да, пока ещё мне везёт, перед ВЛЭКом надо было немного схуднуть для приведение ИМТ из предожирения в норму на всякий, нормально, не зря, главное - в туалет поместится получилось :)))
aviaguy
Старожил форума
27.01.2019 08:17
Взрослые люди, а как подростки... будьте объективны и разумны, коллеги (хотя пилотов тут вроде особо нет, судя по всему). В Аэрофлоте есть куча всяких проблем и отрицательных вещей, и говорю это как человек, не раз летавший по черт знает какой траектории, будучи аж 40-м в очереди на посадку. Но прогноз был точным, и не представляю каково было бы выполнить все по расписанию, при нынешнем количестве рейсов и состоянии Шереметьево - это невозможно; это невозможно, когда идет легкий снежок и время от времени закрываются полосы на очистку. Что тоже вина Аэрофлота, я не спорю, ибо слишком много рейсов, но в подобной ситуации, когда на протяжении всего дня +SHSN с прогнозом усиления ветра и падения видимости, разумнее объединять рейсы, выполняя их +/- по расписанию.
L-m
Старожил форума
27.01.2019 10:24
В такой ситуации перетаскивать в Шереметьево "Россию" было явно не лучшим решением. Аэропорт и до этого был катастрофически перегружен.
user0890
Молодой боец
27.01.2019 15:47
L-m
В такой ситуации перетаскивать в Шереметьево "Россию" было явно не лучшим решением. Аэропорт и до этого был катастрофически перегружен.
а в чём была катастрофичность? самолеты сталкивались и падали? улетали все в нижний новгород? не помещались на перронах и их увозилив Лобню или что?
Владимир Волк
Старожил форума
27.01.2019 16:37
Мочилово продолжается.Какую же мстительную, злобную
Evgeny_73
Старожил форума
27.01.2019 19:21
user0890
а в чём была катастрофичность? самолеты сталкивались и падали? улетали все в нижний новгород? не помещались на перронах и их увозилив Лобню или что?
Ну например после полета длинной в час, 20 минут сидеть в самолете и ждать пока для него найдут место у гейта.
И не один раз такое бывало.
Latino
Старожил форума
27.01.2019 20:04
Evgeny_73
Ну например после полета длинной в час, 20 минут сидеть в самолете и ждать пока для него найдут место у гейта.
И не один раз такое бывало.
А какие увлекательные экскурсии с обзором шедевров архитектуры середины ХХ - начала ХХI веков... в комфортабельных автобусах экономического и бизнес класссов... причём совершенно бесплатно
Evgeny_73
Старожил форума
27.01.2019 22:17
Latino
А какие увлекательные экскурсии с обзором шедевров архитектуры середины ХХ - начала ХХI веков... в комфортабельных автобусах экономического и бизнес класссов... причём совершенно бесплатно
и это кстати тоже.

Ну и чтобы уж быть не совсем предвзятым, во Внуково тоже любят по 25 минут катася вокруг здания аэропорта на автобусе.
L-m
Старожил форума
28.01.2019 09:36
20 минут - не предел))) при мне 777 Нордвинда после посадки ждал гейта 43 минуты.
Petruha_89
Старожил форума
28.01.2019 10:38
L-m
20 минут - не предел))) при мне 777 Нордвинда после посадки ждал гейта 43 минуты.
В прошлом году в Стокгольме после посадки 50 минут ждали гейт. А до этого еще по SLOTу вылетели с задержкой в полтора часа. На облив прислали одну машину (!!!), затребовали вторую - ждали еще полчаса.
Так что сильный снегопад не только для Шереметьево бедствие.
СеменычЕКБ
Старожил форума
28.01.2019 11:13
канал Мэш сообщает:
Вчера в Шереметьево на пару часов задержали рейсы на Ульяновск и на Дрезден. Оба — "Сухой Superjet", оба должны были заменить. Но, как выяснилось, заменить их не на что, поскольку (та-дам!) 28 изделий КБ Сухого неисправны и лететь немного не готовы.

А так хорошие самолеты, конечно.
Latino
Старожил форума
28.01.2019 15:17
Petruha_89
В прошлом году в Стокгольме после посадки 50 минут ждали гейт. А до этого еще по SLOTу вылетели с задержкой в полтора часа. На облив прислали одну машину (!!!), затребовали вторую - ждали еще полчаса.
Так что сильный снегопад не только для Шереметьево бедствие.
И в LAXе было как-то почти 1, 5 часа... но мы не о случае, а о системе ... почти без зависимости от погоды
user0890
Молодой боец
30.01.2019 08:02
Evgeny_73
Ну например после полета длинной в час, 20 минут сидеть в самолете и ждать пока для него найдут место у гейта.
И не один раз такое бывало.
это катастрофа?
там было упоминание о катастрофичной ситуации
Kosmos
Старожил форума
31.01.2019 11:49
Сколько можно стенать по этому поводу?
А то, что во всём мире отменяют - это как? Откройте веток по поводу европейских (из-за забастовок) американских (из-за погоды) отменах... https://www.aex.ru/news/2019/1 ...
FiberOptic
Старожил форума
11.04.2019 13:38
Сегодня отмены больше 10ка рейсов по погоде из Ш. Это как?! Как при таких ценах на билеты еще выгадывать копеечку смешить народ?
при этом посмотрел на сайте все билеты в не сезон май Казань-Симферополь со стыковкой в Ш в ОДИН конец, 12-16 тыс рублей!
L-m
Старожил форума
11.04.2019 15:39
В Шереметьево с часа ночи до почти 7 утра держался сильнейший туман. Стоявшие ночью в порту самолёты покрылись коркой льда. Такой вот апрель.
Corvus
Старожил форума
21.06.2019 18:33
Старая песня на новый лад:

21 июня 2019 г., AEX.RU – Авиакомпания "Аэрофлот" вносит изменения в расписание рейсов, запланированных на субботу, 22 июня. Согласно собщению авиаперевозчика, причиной стал прогнорз неблагоприятных метеоусловий.

В частности, отменяются рейсы из аэропорта "Шереметьево" в Саратов, Уфу, Ригу, Нижний Новгород, Хельсинки, Прагу, Минск, Ставрополь, Челябинск, Казань, Вильнюс, Пермь, Волгоград и обратно.

Кроме того, изменено время вылета на более позднее рейсов из Тбилиси, Ростова, Вены, Штутгарта, Екатеринбурга и Волгограда.

Оповещение пассажиров проводится через центр бронирования и информации.

В компании отмечают, что прибывшие на регистрацию будут обеспечены всем необходимым в соответствии с Федеральными авиационными правилами и стандартами "Аэрофлота".

https://www.aex.ru/news/2019/6 ...
12345678




 

 

 

 

← На главную страницу

Чтобы публиковать комментарии, вы должны войти на сайт.

Реклама на сайте Обратная связь/Связаться с администрацией
Рейтинг@Mail.ru